Temperature
18 18 18 18 18 18 18 18 17 18 17 17 17 17 17 16 16 16 16 16 15 15 15 15 15 14 14 14 14 14 14 14 14 15 15 16 16 16 16 16 16 16 16
18 18 18 17 17 17 18 17 17 17 17 17 17 17 17 16 16 16 16 15 15 15 15 14 14 14 14 13 13 13 14 14 14 14 15 16 17 16 16 16 16 16 16
19 18 18 18 18 17 17 17 17 17 17 17 16 16 16 16 16 15 15 15 15 14 14 14 14 13 13 14 13 13 13 14 14 14 14 15 17 16 17 16 16 16 16
20 19 19 18 18 17 17 17 17 17 17 17 16 16 16 16 16 15 15 14 14 14 14 13 13 13 13 13 13 13 13 13 13 14 13 13 14 14 15 16 16 15 15
20 20 19 18 18 18 17 17 17 17 17 17 16 16 15 15 15 14 14 14 13 13 13 13 12 12 12 12 12 12 12 12 13 13 14 14 13 13 14 15 15 15 15
20 20 19 19 18 18 17 17 17 17 16 16 15 15 15 14 14 14 13 13 13 13 12 12 12 12 12 12 11 11 12 12 12 12 13 13 13 14 14 14 14 15 15
21 20 20 19 18 18 17 17 16 16 16 15 15 14 14 14 13 13 13 12 13 13 12 11 11 11 11 11 11 11 11 11 11 11 12 13 13 13 13 13 14 14 14
21 20 20 19 19 18 17 17 16 16 15 15 14 14 13 13 13 12 12 12 12 12 11 11 11 10 10 10 10 11 11 11 11 11 11 12 12 13 13 13 13 13 14
21 21 20 19 18 18 17 16 16 15 15 14 14 13 13 12 12 12 11 11 11 11 10 10 10 10 10 10 10 10 10 10 10 11 11 11 12 12 12 12 12 13 13
21 20 19 19 18 17 17 16 15 15 14 14 13 13 12 12 11 11 11 10 10 10 10 10 9 9 9 9 9 10 10 10 10 10 10 11 11 11 12 12 12 12 12
21 20 19 18 17 17 16 15 15 14 14 13 13 12 12 11 11 10 10 10 9 9 9 9 9 9 9 9 9 9 9 9 9 10 10 10 10 11 11 11 12 12 12
21 20 19 18 17 17 16 15 15 14 13 13 12 12 11 11 10 10 10 9 9 9 9 9 9 9 9 9 9 9 9 9 9 9 9 9 10 10 10 11 11 11 12
20 20 19 18 17 16 16 15 14 14 13 13 12 12 11 11 10 10 9 9 9 9 9 9 9 9 9 9 9 9 9 9 9 9 9 9 9 9 10 10 11 11 11
20 19 18 17 17 16 15 15 14 14 13 12 12 11 11 10 10 9 9 9 9 9 9 9 8 8 8 8 8 8 8 8 8 8 8 9 9 9 9 10 10 10 11
20 19 18 18 17 16 15 15 14 13 12 12 11 11 10 10 10 9 9 9 9 9 8 8 8 8 8 8 8 8 8 8 8 8 8 8 8 8 9 9 10 10 10
20 19 18 17 17 16 15 15 14 13 12 12 11 11 10 10 10 9 9 9 9 8 8 8 8 8 8 8 8 8 8 8 8 8 8 8 8 8 9 9 9 9 9
20 19 18 18 17 16 15 14 14 13 12 12 11 10 10 10 9 9 9 9 8 8 8 8 8 8 8 8 8 8 8 7 7 7 8 8 8 8 8 8 8 9 9
20 19 18 17 17 16 15 14 14 13 12 12 11 10 10 10 9 9 9 9 8 8 8 8 8 8 8 8 8 8 8 7 7 7 7 7 8 8 8 8 8 8 8
20 19 18 17 16 16 15 14 14 13 12 12 11 10 10 9 9 9 9 9 8 8 8 8 8 8 8 8 8 8 7 7 7 7 7 7 7 7 7 7 7 8 8
19 18 18 17 16 16 15 14 14 13 12 12 11 10 10 9 9 9 9 9 8 8 8 8 8 8 8 8 8 7 7 7 7 7 7 7 7 7 7 7 7 7 8
19 18 18 17 16 15 15 14 13 13 12 11 11 10 10 9 9 9 9 8 8 8 8 8 8 8 8 7 7 7 7 6 7 7 7 7 7 7 7 7 7 7 8
19 18 18 17 16 15 15 14 13 12 12 11 10 10 10 9 9 9 9 8 8 8 8 8 8 8 8 7 7 7 7 7 6 6 7 7 6 6 7 7 7 7 7
19 18 17 17 16 15 14 14 13 12 12 11 10 10 10 9 9 9 9 8 8 8 8 8 8 8 8 8 7 7 7 6 6 6 6 6 6 6 6 6 7 7 7
18 18 17 16 16 15 14 14 13 12 11 11 10 10 10 10 9 9 9 9 8 8 8 8 8 8 8 8 7 7 6 6 6 6 6 6 6 6 6 6 6 6 7
18 18 17 16 15 15 14 13 13 12 11 11 10 10 10 10 9 9 9 8 8 8 8 8 8 8 8 8 7 7 6 6 6 6 6 6 6 6 6 6 6 6 7
18 17 17 16 15 15 14 13 13 12 11 11 10 10 10 10 9 9 9 9 9 9 8 8 8 8 8 7 7 7 7 7 6 6 6 6 6 6 6 6 6 7 7
Wind_Speed
7 6 6 5 6 7 7 6 6 6 5 4 3 3 2 2 1 1 1 1 1 1 3 5 3 5 5 6 7 7 7 7 6 8 10 10 12 12 11 12 13 15 17
8 7 7 6 6 6 6 6 6 5 4 3 2 1 1 2 1 1 1 2 2 3 4 4 5 5 5 6 6 6 7 7 6 7 9 9 9 9 10 10 11 13 12
9 9 8 7 7 7 6 5 5 4 3 3 3 2 3 3 3 3 3 3 4 5 5 5 6 6 8 7 7 8 8 8 8 6 6 7 7 7 6 8 9 9 10
8 8 8 7 7 6 6 5 5 4 4 4 3 3 4 4 4 4 4 4 5 6 6 7 7 7 9 8 9 8 8 9 9 7 7 8 8 7 7 6 6 8 9
8 8 7 7 6 6 5 5 5 4 3 3 3 4 5 5 5 5 6 6 6 7 7 7 7 7 9 9 9 9 10 9 10 9 8 8 8 9 9 9 8 7 7
8 8 7 6 6 5 5 5 5 4 4 4 4 5 6 6 7 8 8 8 7 7 8 8 8 9 9 9 9 9 11 10 10 10 10 9 8 8 8 9 9 9 8
8 8 7 7 6 5 5 4 4 4 4 4 4 4 5 7 7 8 8 8 9 8 7 8 8 9 8 9 10 10 11 11 11 11 11 10 9 8 9 9 9 9 8
8 7 7 6 5 5 4 4 3 3 3 3 3 4 5 7 7 6 8 9 8 9 8 9 9 10 10 10 9 10 11 10 10 12 12 10 11 9 9 9 9 9 9
8 7 6 6 5 4 4 3 3 2 2 3 3 4 5 6 7 7 8 8 7 9 9 9 10 10 10 10 10 10 11 10 11 12 12 11 10 10 9 9 8 8 9
8 8 7 6 5 4 3 2 2 2 3 4 5 5 5 6 6 8 8 9 9 9 10 11 11 11 11 11 11 11 11 10 11 10 12 11 11 10 9 9 9 9 9
9 8 7 6 6 5 4 3 3 3 4 4 5 6 7 7 7 8 9 9 9 10 11 11 11 11 11 11 11 12 12 13 13 12 12 13 13 11 10 10 10 9 9
8 8 7 7 6 4 3 3 3 4 4 5 5 7 7 8 8 9 9 9 10 10 11 11 11 12 12 11 12 13 13 13 13 13 13 13 12 13 12 11 11 10 9
8 8 7 6 5 4 3 3 4 4 5 5 7 7 7 8 9 9 10 10 11 11 11 11 12 12 12 12 12 13 13 13 14 14 14 14 14 14 13 13 12 11 10
9 8 7 6 4 4 3 4 4 4 5 6 7 8 8 9 9 10 11 11 11 11 11 11 12 12 12 12 12 12 13 13 14 14 14 14 14 14 14 12 13 12 12
10 9 7 5 5 4 4 4 4 4 5 7 8 8 9 9 10 10 11 10 11 11 11 12 12 12 12 11 11 11 13 13 13 14 14 15 14 12 11 12 12 12 12
10 8 7 6 5 4 4 4 4 5 6 7 8 8 9 10 10 11 11 10 11 11 11 12 12 12 11 6 6 11 14 14 15 15 14 14 14 14 15 15 15 14 14
9 8 6 5 5 4 4 4 5 5 6 8 8 9 9 10 10 11 11 11 11 11 11 12 12 12 12 7 8 10 13 15 15 15 14 13 13 12 14 15 18 18 19
8 7 6 5 5 4 4 4 5 6 7 8 9 9 9 10 10 10 11 11 11 11 11 12 12 12 12 7 8 9 13 15 15 15 15 15 15 14 13 14 15 15 16
7 6 5 5 4 4 4 4 5 6 7 8 8 8 9 10 10 11 11 11 11 11 11 12 12 13 12 8 7 9 12 12 14 14 14 14 14 12 10 14 15 15 14
7 6 5 5 5 4 4 5 6 7 8 8 8 9 9 10 11 11 11 11 11 11 12 12 12 12 13 8 6 8 10 12 12 11 12 12 13 11 9 14 15 16 14
8 7 6 5 5 4 5 6 7 7 8 8 8 9 9 10 11 10 10 11 11 11 12 12 12 12 11 9 8 8 9 11 11 10 10 8 8 12 12 14 15 14 12
9 8 7 6 5 5 6 7 7 7 7 8 9 9 9 10 9 10 10 11 10 11 11 11 11 10 8 7 6 8 10 11 11 11 10 8 4 8 12 12 12 11 10
8 7 7 6 5 6 6 8 7 7 7 8 9 9 10 9 9 9 10 10 9 9 10 10 10 10 9 6 7 10 11 12 10 11 10 10 9 9 10 13 13 11 11
8 7 7 7 6 6 6 7 7 7 8 9 9 9 9 9 9 8 9 9 9 9 9 10 10 10 10 8 7 6 7 9 10 10 10 12 13 12 11 9 11 12 11
7 7 7 7 7 6 6 6 6 7 8 9 9 9 9 8 8 8 8 9 9 8 9 10 11 11 11 8 7 9 10 10 9 9 9 9 8 8 9 9 10 10 11
7 7 7 7 6 6 6 6 6 7 8 9 9 8 8 7 8 9 9 8 11 10 13 14 13 11 12 13 13 12 13 13 11 9 9 9 8 9 9 9 9 10 11
Wind_Direction
121 124 119 122 134 140 142 146 149 153 164 164 178 178 180 188 189 187 142 235 293 309 299 306 309 295 296 299 294 290 282 278 288 284 277 264 251 246 248 245 245 241 236
136 139 141 147 147 144 143 149 161 162 175 165 186 202 206 226 221 237 202 251 272 281 278 296 294 296 297 281 286 285 291 291 289 290 291 282 264 236 243 243 241 243 238
150 150 148 151 154 151 155 154 158 164 174 177 193 189 207 231 234 244 244 257 272 272 284 284 288 299 289 287 289 285 279 287 287 278 282 288 287 304 258 245 246 243 239
152 152 156 160 162 159 160 163 171 176 183 204 221 242 262 276 290 286 286 282 276 279 280 281 282 284 287 289 278 278 282 277 280 274 263 270 286 286 288 268 251 245 244
163 163 169 170 169 171 174 177 181 189 197 221 234 256 271 285 289 291 288 287 281 275 279 282 285 284 281 285 287 288 278 275 275 279 278 275 270 263 271 282 282 269 254
174 175 176 176 182 186 192 194 190 200 211 227 243 261 280 289 295 293 294 287 285 281 280 284 285 282 284 284 278 278 272 270 274 275 275 275 277 281 280 280 281 279 271
185 186 188 191 195 199 201 204 202 210 221 237 256 270 281 284 281 290 295 296 295 292 295 297 292 288 285 282 280 274 276 272 268 264 267 270 272 278 281 282 284 282 278
189 192 194 195 198 195 195 201 205 224 241 254 268 279 283 286 294 301 302 298 297 302 309 295 288 286 284 282 280 278 271 267 267 266 267 269 267 269 271 277 286 285 276
187 188 186 184 185 183 184 193 203 221 244 262 273 275 285 295 301 298 284 292 300 297 297 293 289 287 284 283 281 275 276 273 269 268 262 258 264 263 265 268 270 278 282
180 177 175 173 170 169 172 186 220 249 266 270 281 289 290 289 290 291 301 299 296 294 293 289 287 285 283 280 277 276 271 270 268 268 272 269 266 264 259 260 263 263 270
175 173 171 169 173 183 196 215 245 260 269 280 285 291 292 294 291 290 293 295 293 293 289 287 286 284 282 280 277 275 278 272 270 268 264 261 265 266 264 257 256 259 260
170 171 172 176 186 200 220 240 265 274 278 283 285 288 294 294 294 296 298 296 292 291 290 289 287 284 283 283 279 277 277 274 271 268 267 264 261 257 259 260 258 258 259
172 172 177 187 200 215 233 257 272 282 289 293 290 292 293 295 295 297 297 295 292 291 291 289 287 286 286 283 280 278 276 273 271 269 267 264 261 260 258 256 255 253 251
178 181 184 195 206 221 243 260 273 287 295 296 294 295 296 297 296 297 298 295 293 292 291 290 288 286 285 282 280 278 277 275 274 271 267 265 261 258 257 256 254 254 254
187 189 195 202 213 227 241 257 275 286 294 295 295 296 297 297 296 297 297 296 293 290 290 290 288 286 284 281 287 290 284 281 277 273 268 264 263 272 269 266 263 257 250
195 195 200 208 221 236 251 262 274 286 290 291 294 297 297 297 297 298 297 294 292 290 290 288 288 288 286 313 308 286 286 283 277 273 270 268 256 247 240 248 259 265 261
197 199 206 213 223 236 245 261 277 284 286 288 293 296 297 298 300 302 300 296 295 293 291 290 289 288 286 274 264 267 279 278 275 273 271 268 265 254 252 239 232 241 245
199 202 208 211 218 223 233 255 275 280 285 289 293 297 298 299 302 301 298 297 294 294 293 293 292 291 289 269 261 267 273 273 271 269 267 265 266 262 259 258 252 247 239
196 199 205 210 213 225 237 257 274 282 287 292 297 300 301 300 300 299 300 299 297 295 294 292 292 290 289 269 253 266 283 274 271 268 266 265 264 258 250 256 256 255 251
189 193 197 204 211 221 230 255 275 287 293 298 300 300 298 296 297 298 299 299 297 293 294 294 292 290 289 281 250 259 279 279 278 274 268 256 252 266 249 251 251 249 247
191 193 199 211 219 221 229 256 276 285 294 299 297 295 294 293 292 294 295 296 295 296 294 294 293 290 284 276 244 242 272 282 284 282 277 272 227 231 237 246 254 257 262
194 197 202 215 218 221 234 258 273 284 291 292 291 293 294 295 296 295 293 293 293 291 291 293 296 295 288 276 261 233 249 272 279 280 281 286 264 240 237 240 248 256 261
200 202 208 217 221 223 237 260 276 283 286 288 289 293 296 295 294 295 294 293 291 291 298 302 304 306 307 290 227 231 240 245 262 277 287 290 280 262 245 237 238 239 238
200 203 212 224 228 231 240 254 269 274 278 283 288 292 292 294 297 296 294 296 298 300 303 305 306 307 306 306 309 295 267 240 253 270 268 251 248 248 255 242 224 229 231
202 205 214 227 235 234 241 252 260 266 274 282 286 287 290 295 296 292 293 292 294 298 294 301 303 305 305 322 338 308 299 302 307 308 287 274 262 251 242 238 232 226 222
200 207 218 230 237 237 243 251 255 257 268 278 283 289 294 297 295 297 295 257 252 258 248 252 266 286 283 292 291 284 277 276 278 279 270 269 264 257 247 240 233 228 224
Height
1536 1537 1537 1538 1540 1541 1542 1543 1544 1545 1546 1548 1549 1549 1549 1549 1549 1549 1548 1548 1547 1547 1546 1546 1545 1544 1544 1542 1541 1540 1539 1538 1537 1536 1534 1532 1531 1530 1529 1529 1529 1530 1532
1537 1538 1539 1540 1541 1542 1542 1543 1544 1546 1546 1547 1548 1548 1549 1549 1549 1548 1546 1546 1545 1544 1544 1543 1542 1542 1540 1539 1538 1536 1536 1535 1534 1533 1531 1529 1528 1525 1525 1524 1523 1524 1526
1537 1539 1540 1542 1543 1543 1543 1544 1545 1545 1546 1547 1548 1548 1547 1547 1547 1546 1545 1543 1542 1541 1540 1539 1539 1538 1538 1537 1535 1534 1533 1532 1531 1530 1530 1527 1523 1522 1521 1520 1519 1519 1520
1537 1538 1540 1542 1543 1543 1543 1544 1544 1545 1545 1546 1546 1547 1546 1546 1545 1544 1543 1541 1539 1538 1537 1536 1535 1534 1534 1533 1531 1531 1530 1529 1528 1527 1526 1525 1523 1522 1518 1517 1516 1515 1515
1536 1538 1540 1541 1542 1543 1543 1543 1543 1544 1544 1544 1544 1544 1544 1543 1542 1541 1539 1537 1536 1534 1533 1531 1530 1529 1529 1528 1527 1526 1525 1525 1525 1524 1523 1521 1520 1518 1517 1514 1513 1512 1511
1535 1537 1539 1540 1541 1541 1542 1542 1542 1542 1542 1542 1541 1541 1540 1539 1538 1537 1536 1534 1533 1531 1530 1528 1526 1525 1524 1523 1522 1521 1521 1520 1520 1519 1519 1518 1517 1515 1513 1511 1509 1508 1507
1533 1535 1537 1538 1539 1540 1540 1541 1540 1540 1540 1539 1539 1538 1537 1535 1534 1533 1532 1530 1529 1528 1526 1524 1522 1520 1519 1518 1517 1516 1516 1515 1515 1514 1514 1514 1513 1512 1510 1508 1506 1504 1503
1530 1533 1534 1536 1537 1538 1538 1538 1538 1538 1537 1537 1536 1534 1533 1533 1532 1530 1528 1527 1525 1524 1521 1519 1517 1516 1514 1513 1512 1512 1511 1510 1509 1509 1509 1508 1508 1507 1506 1505 1503 1501 1499
1528 1531 1532 1534 1535 1536 1536 1536 1536 1535 1535 1534 1532 1531 1530 1528 1527 1525 1524 1523 1521 1519 1517 1514 1513 1511 1510 1508 1507 1507 1506 1505 1504 1504 1503 1503 1503 1502 1502 1501 1500 1500 1496
1526 1528 1530 1532 1533 1533 1533 1533 1533 1532 1532 1531 1529 1529 1527 1525 1523 1521 1519 1517 1515 1513 1511 1510 1508 1506 1505 1504 1502 1502 1501 1500 1499 1498 1497 1497 1497 1497 1497 1497 1496 1495 1494
1524 1526 1528 1529 1530 1531 1532 1531 1531 1530 1529 1527 1526 1524 1523 1522 1519 1517 1515 1513 1511 1508 1507 1505 1503 1501 1500 1499 1497 1496 1495 1494 1493 1493 1492 1492 1491 1492 1492 1492 1491 1491 1490
1522 1524 1526 1527 1528 1529 1529 1529 1528 1527 1526 1524 1523 1521 1519 1517 1515 1514 1511 1509 1506 1504 1502 1500 1498 1497 1495 1494 1492 1491 1490 1489 1488 1487 1487 1486 1486 1486 1486 1486 1486 1486 1485
1520 1522 1524 1525 1526 1526 1526 1526 1525 1524 1523 1521 1519 1518 1516 1513 1511 1509 1507 1504 1502 1500 1498 1495 1493 1492 1490 1488 1486 1485 1484 1483 1482 1481 1480 1480 1480 1480 1480 1480 1480 1481 1481
1518 1520 1521 1522 1523 1523 1523 1523 1522 1521 1519 1518 1516 1514 1512 1510 1507 1505 1502 1500 1497 1495 1493 1491 1489 1487 1485 1483 1481 1480 1478 1477 1476 1475 1474 1474 1474 1474 1474 1474 1474 1475 1476
1515 1517 1518 1520 1520 1520 1520 1519 1519 1517 1516 1514 1512 1510 1508 1506 1503 1501 1498 1495 1493 1491 1488 1486 1484 1482 1480 1479 1477 1475 1473 1472 1470 1469 1468 1467 1467 1467 1467 1469 1469 1470 1470
1512 1514 1515 1516 1517 1517 1517 1516 1515 1514 1512 1510 1509 1507 1504 1502 1499 1497 1494 1491 1489 1486 1484 1482 1479 1477 1476 1474 1471 1469 1467 1465 1464 1463 1462 1461 1460 1460 1460 1461 1462 1463 1464
1509 1511 1512 1513 1513 1514 1513 1512 1512 1510 1509 1507 1505 1503 1500 1498 1495 1493 1490 1487 1485 1482 1480 1477 1475 1472 1470 1468 1465 1463 1461 1459 1458 1457 1455 1455 1455 1455 1455 1454 1455 1455 1457
1506 1508 1509 1510 1510 1510 1510 1509 1508 1507 1505 1504 1502 1499 1497 1494 1491 1488 1486 1483 1481 1478 1476 1473 1470 1467 1465 1462 1460 1457 1455 1453 1451 1450 1449 1448 1447 1448 1448 1449 1449 1450 1451
1503 1505 1506 1507 1507 1507 1507 1506 1505 1504 1502 1500 1498 1496 1493 1490 1487 1484 1482 1479 1476 1473 1471 1468 1465 1462 1459 1457 1454 1452 1449 1447 1445 1444 1443 1442 1441 1441 1441 1442 1442 1443 1445
1500 1501 1503 1503 1503 1503 1503 1502 1502 1500 1499 1497 1494 1491 1488 1485 1483 1480 1477 1475 1472 1469 1466 1463 1460 1457 1454 1451 1449 1446 1444 1442 1440 1438 1437 1435 1435 1435 1435 1435 1436 1437 1438
1496 1498 1499 1500 1500 1500 1499 1498 1498 1496 1494 1492 1489 1487 1484 1481 1479 1476 1473 1470 1467 1464 1461 1458 1455 1452 1449 1446 1443 1441 1438 1437 1435 1433 1432 1430 1429 1428 1428 1429 1430 1431 1433
1493 1494 1495 1496 1496 1495 1495 1494 1493 1492 1490 1487 1485 1483 1480 1478 1475 1472 1469 1466 1463 1460 1457 1454 1451 1448 1445 1442 1439 1436 1433 1431 1429 1427 1426 1425 1423 1422 1422 1422 1423 1425 1426
1490 1491 1492 1492 1492 1492 1491 1490 1489 1488 1486 1483 1481 1479 1476 1474 1471 1468 1465 1462 1459 1456 1454 1451 1448 1444 1441 1438 1434 1431 1428 1426 1424 1422 1420 1419 1418 1417 1416 1416 1417 1419 1420
1486 1487 1488 1488 1488 1488 1487 1486 1484 1483 1481 1479 1477 1475 1472 1470 1467 1464 1461 1459 1456 1453 1450 1447 1444 1440 1437 1434 1431 1428 1425 1422 1419 1417 1415 1413 1412 1411 1411 1411 1411 1412 1414
1481 1482 1483 1484 1484 1483 1483 1482 1480 1479 1477 1475 1473 1471 1469 1466 1463 1460 1458 1455 1453 1450 1446 1443 1440 1437 1433 1430 1426 1423 1420 1418 1416 1413 1410 1409 1407 1406 1406 1406 1406 1407 1409
1477 1478 1479 1480 1480 1479 1478 1477 1476 1474 1473 1471 1470 1468 1465 1462 1459 1457 1454 1451 1448 1445 1442 1438 1435 1432 1428 1424 1421 1418 1415 1413 1410 1408 1406 1404 1403 1402 1401 1401 1401 1402 1403